Terminal Aerodrome Forecast
Issued by NWS Wilmington, OH

Current Version | Previous Version | Graphics & Text | Print | Product List | Glossary On
Versions: 1 2 3 4 5 6 7 8 9 10 11 12 13 14 15 16 17 18 19 20 21 22 23 24 25 26 27 28 29 30 31 32 33 34 35
000
FTUS41 KILN 170803 AAA
TAFCVG
TAF AMD
KCVG 170803Z 1708/1812 00000KT P6SM SCT025 OVC035
      TEMPO 1709/1711 BKN025
     FM171100 VRB03KT P6SM SCT025 BKN200
     FM171600 18006KT P6SM -RA OVC015
     FM180000 21006KT P6SM OVC008
     FM180600 28006KT P6SM BKN015=

USA.gov is the U.S. government's official web portal to all federal, state and local government web resources and services.